This demonstration page uses our WeatherBlox Daily Observations layout. Learn more.

Left ArrowRight Arrow

53.62937, 11.41316

Hourly Observations for June 27, 2022

Temp ( °F °C ) Dew Point ( °F °C ) Humidity (%) Winds ( mph kmh ) Pressure ( in mb ) Visibility ( mi km ) Precip ( " mm )
12:20 am 00:20 Mostly Clear 66 19 59 15 78 78 NNE 6 9 29.97 1015 30 48 N/A
12:50 am 00:50 Partly Cloudy 66 19 59 15 78 78 NNE 6 9 29.97 1015 30 48 N/A
1:20 am 01:20 Partly Cloudy 64 18 59 15 83 83 NNE 5 7 29.97 1015 30 48 N/A
1:50 am 01:50 Mostly Clear 64 18 59 15 83 83 N 5 7 29.94 1014 30 48 N/A
2:20 am 02:20 Mostly Cloudy 64 18 61 16 88 88 N 6 9 29.94 1014 30 48 N/A
2:50 am 02:50 Mostly Cloudy 64 18 61 16 88 88 NNE 7 11 29.94 1014 30 48 N/A
3:20 am 03:20 Partly Cloudy 64 18 61 16 88 88 NNE 5 7 29.94 1014 30 48 N/A
3:50 am 03:50 Mostly Cloudy 66 19 63 17 88 88 NE 5 7 29.91 1013 30 48 N/A
4:20 am 04:20 Cloudy 66 19 63 17 88 88 NNE 3 6 29.91 1013 30 48 N/A
4:50 am 04:50 Cloudy 66 19 63 17 88 88 W 12 19 29.94 1014 30 48 N/A
5:20 am 05:20 Partly Cloudy 64 18 63 17 94 94 NW 7 11 29.94 1014 30 48 N/A
5:50 am 05:50 Mostly Cloudy 64 18 63 17 94 94 NW 7 11 29.94 1014 30 48 N/A
6:20 am 06:20 Mostly Sunny 66 19 63 17 88 88 NNW 6 9 29.94 1014 7 11 N/A
6:50 am 06:50 Mostly Cloudy 66 19 63 17 88 88 NW 6 9 29.94 1014 30 48 N/A
7:20 am 07:20 Mostly Cloudy 66 19 61 16 83 83 WNW 9 15 29.94 1014 30 48 N/A
7:50 am 07:50 Mostly Sunny 66 19 61 16 83 83 N 8 13 29.91 1013 30 48 N/A
8:20 am 08:20 Mostly Sunny 70 21 63 17 78 78 N 7 11 29.91 1013 7 11 N/A
8:50 am 08:50 Mostly Sunny 70 21 63 17 78 78 NNE 7 11 29.91 1013 7 11 N/A
9:20 am 09:20 Mostly Sunny 72 22 64 18 78 78 NE 8 13 29.91 1013 7 11 N/A
9:50 am 09:50 Mostly Sunny 73 23 64 18 74 74 ENE 9 15 29.91 1013 7 11 N/A
10:20 am 10:20 Mostly Sunny 73 23 63 17 69 69 E 8 13 29.91 1013 30 48 N/A
10:50 am 10:50 Mostly Sunny 73 23 63 17 69 69 ENE 7 11 29.91 1013 30 48 N/A
11:20 am 11:20 Mostly Sunny 73 23 63 17 69 69 NE 5 7 29.91 1013 30 48 N/A
11:50 am 11:50 Mostly Sunny 75 24 64 18 69 69 ENE 5 7 29.91 1013 30 48 N/A
12:20 pm 12:20 Partly Cloudy 75 24 64 18 69 69 ENE 5 7 29.91 1013 30 48 N/A
12:50 pm 12:50 Partly Cloudy 75 24 66 19 74 74 NE 5 7 29.91 1013 30 48 N/A
1:20 pm 13:20 Partly Cloudy 77 25 63 17 61 61 VRB 3 6 29.91 1013 30 48 N/A
1:50 pm 13:50 Partly Cloudy 77 25 64 18 65 65 E 5 7 29.91 1013 30 48 N/A
2:20 pm 14:20 Partly Cloudy 79 26 64 18 61 61 NW 5 7 29.91 1013 30 48 N/A
2:50 pm 14:50 Mostly Cloudy 79 26 66 19 65 65 WNW 7 11 29.91 1013 30 48 N/A
3:20 pm 15:20 Mostly Cloudy 79 26 66 19 65 65 WNW 9 15 29.91 1013 30 48 N/A
3:50 pm 15:50 Mostly Sunny 77 25 68 20 74 74 NW 9 15 29.91 1013 30 48 N/A
4:20 pm 16:20 Partly Cloudy 77 25 66 19 69 69 WNW 10 17 29.91 1013 30 48 N/A
4:50 pm 16:50 Partly Cloudy 77 25 64 18 65 65 W 10 17 29.91 1013 30 48 N/A
5:20 pm 17:20 Partly Cloudy 75 24 64 18 69 69 WNW 13 20 29.91 1013 30 48 N/A
5:50 pm 17:50 Partly Cloudy with Showers Nearby 72 22 64 18 78 78 WNW 10 17 29.94 1014 30 48 N/A
6:20 pm 18:20 Mostly Cloudy 70 21 63 17 78 78 WNW 10 17 29.94 1014 30 48 N/A
6:50 pm 18:50 Cloudy 70 21 63 17 78 78 NW 8 13 29.94 1014 30 48 N/A
7:20 pm 19:20 Cloudy 68 20 63 17 83 83 WNW 9 15 29.97 1015 30 48 N/A
7:50 pm 19:50 Cloudy 66 19 63 17 88 88 WNW 9 15 29.97 1015 30 48 N/A
8:20 pm 20:20 Cloudy 64 18 63 17 94 94 WNW 10 17 29.97 1015 30 48 N/A
8:50 pm 20:50 Cloudy 64 18 61 16 88 88 NW 10 17 30.00 1016 30 48 N/A
9:20 pm 21:20 Cloudy 63 17 61 16 94 94 WNW 8 13 30.00 1016 30 48 N/A
9:50 pm 21:50 Cloudy 63 17 61 16 94 94 NW 6 9 30.03 1017 30 48 N/A
10:20 pm 22:20 Cloudy 63 17 59 15 88 88 WNW 6 9 30.03 1017 30 48 N/A
10:50 pm 22:50 Mostly Cloudy 61 16 59 15 94 94 NW 6 9 30.03 1017 30 48 N/A
11:20 pm 23:20 Cloudy 61 16 59 15 94 94 WNW 7 11 30.03 1017 30 48 N/A
11:50 pm 23:50 Cloudy 61 16 59 15 94 94 W 6 9 30.03 1017 30 48 N/A

Powered by AerisWeather